Tiempo cada hora Barra Velha

Hoy, 15 Mayo, Sábado

Tiempo Temperatura Precipitaciones Viento Presión Humedad
00:00 +16°C° 0 mm 1 mps 765 mmHg 94%
01:00 +16°C° 0 mm 1 mps 765 mmHg 93%
02:00 +18°C° 0 mm 1 mps 764 mmHg 93%
03:00 +18°C° 0 mm 1 mps 764 mmHg 92%
04:00 +16°C° 0 mm 1 mps 764 mmHg 92%
05:00 +16°C° 0 mm 1 mps 764 mmHg 93%
06:00 +16°C° 0 mm 1 mps 764 mmHg 93%
07:00 +18°C° 0 mm 1 mps 764 mmHg 90%
08:00 +19°C° 0 mm 1 mps 765 mmHg 86%
09:00 +19°C° 0 mm 1 mps 765 mmHg 83%
10:00 +21°C° 0 mm 1 mps 765 mmHg 77%
11:00 +20°C° 0 mm 0 mps 765 mmHg 72%
12:00 +21°C° 0 mm 0 mps 765 mmHg 66%
13:00 +21°C° 0 mm 0 mps 764 mmHg 66%
14:00 +24°C° 0 mm 1 mps 764 mmHg 66%
15:00 +24°C° 0 mm 1 mps 763 mmHg 65%
16:00 +22°C° 0 mm 1 mps 763 mmHg 74%
17:00 +21°C° 0 mm 1 mps 763 mmHg 82%
18:00 +19°C° 0 mm 1 mps 763 mmHg 91%
19:00 +18°C° 0 mm 1 mps 764 mmHg 94%
20:00 +16°C° 0 mm 1 mps 764 mmHg 96%
21:00 +16°C° 0 mm 1 mps 765 mmHg 98%
22:00 +16°C° 0 mm 1 mps 765 mmHg 98%
23:00 +15°C° 0 mm 1 mps 765 mmHg 99%

Mañana, 16 Mayo, Domingo

Tiempo Temperatura Precipitaciones Viento Presión Humedad
00:00 +15°C° 0 mm 1 mps 765 mmHg 99%
01:00 +15°C° 0 mm 1 mps 764 mmHg 99%
02:00 +15°C° 0 mm 1 mps 764 mmHg 99%
03:00 +15°C° 0 mm 1 mps 764 mmHg 99%
04:00 +14°C° 0 mm 1 mps 764 mmHg 99%
05:00 +14°C° 0 mm 1 mps 764 mmHg 99%
06:00 +14°C° 0 mm 1 mps 764 mmHg 99%
07:00 +15°C° 0 mm 1 mps 764 mmHg 94%
08:00 +18°C° 0 mm 1 mps 764 mmHg 89%
09:00 +19°C° 0 mm 1 mps 765 mmHg 84%
10:00 +21°C° 0 mm 1 mps 764 mmHg 75%
11:00 +23°C° 0 mm 1 mps 764 mmHg 67%
12:00 +24°C° 0 mm 0 mps 764 mmHg 58%
13:00 +26°C° 0 mm 1 mps 763 mmHg 58%
14:00 +25°C° 0 mm 2 mps 763 mmHg 59%
15:00 +25°C° 0 mm 2 mps 762 mmHg 60%
16:00 +23°C° 0 mm 2 mps 762 mmHg 72%
17:00 +20°C° 0 mm 2 mps 763 mmHg 84%
18:00 +18°C° 0 mm 2 mps 763 mmHg 96%
19:00 +17°C° 0 mm 2 mps 763 mmHg 97%
20:00 +17°C° 0 mm 2 mps 764 mmHg 98%
21:00 +18°C° 0 mm 1 mps 764 mmHg 99%
22:00 +18°C° 0 mm 1 mps 764 mmHg 99%
23:00 +18°C° 0 mm 1 mps 763 mmHg 99%

Pasado mañana, 17 Mayo, Lunes

Tiempo Temperatura Precipitaciones Viento Presión Humedad
00:00 +18°C° 0 mm 1 mps 763 mmHg 99%
01:00 +18°C° 0 mm 1 mps 763 mmHg 98%
02:00 +18°C° 0 mm 1 mps 762 mmHg 97%
03:00 +18°C° 0 mm 1 mps 762 mmHg 96%
04:00 +18°C° 0 mm 1 mps 762 mmHg 97%
05:00 +16°C° 0 mm 1 mps 762 mmHg 98%
06:00 +16°C° 0 mm 1 mps 761 mmHg 99%
07:00 +18°C° 0 mm 1 mps 762 mmHg 93%
08:00 +20°C° 0 mm 1 mps 762 mmHg 87%
09:00 +20°C° 0 mm 2 mps 762 mmHg 81%
10:00 +23°C° 0 mm 1 mps 762 mmHg 72%
11:00 +25°C° 0 mm 1 mps 761 mmHg 63%
12:00 +27°C° 0 mm 1 mps 761 mmHg 54%
13:00 +28°C° 0 mm 1 mps 760 mmHg 52%
14:00 +28°C° 0 mm 2 mps 759 mmHg 50%
15:00 +29°C° 0 mm 2 mps 759 mmHg 48%
16:00 +26°C° 0 mm 2 mps 759 mmHg 61%
17:00 +22°C° 0 mm 3 mps 760 mmHg 74%
18:00 +19°C° 0 mm 4 mps 760 mmHg 88%
19:00 +19°C° 0 mm 3 mps 761 mmHg 91%
20:00 +18°C° 0 mm 3 mps 762 mmHg 94%
21:00 +17°C° 0 mm 3 mps 762 mmHg 97%
22:00 +17°C° 0 mm 2 mps 762 mmHg 96%
23:00 +17°C° 0 mm 2 mps 762 mmHg 96%

18 Mayo, Martes

Tiempo Temperatura Precipitaciones Viento Presión Humedad
00:00 +17°C° 0 mm 2 mps 762 mmHg 96%
01:00 +17°C° 0 mm 2 mps 762 mmHg 95%
02:00 +18°C° 0 mm 1 mps 762 mmHg 95%
03:00 +19°C° 0 mm 1 mps 762 mmHg 94%
04:00 +19°C° 0 mm 1 mps 762 mmHg 95%
05:00 +19°C° 0 mm 1 mps 762 mmHg 95%
06:00 +19°C° 0 mm 1 mps 762 mmHg 95%
07:00 +19°C° 0.1 mm 1 mps 763 mmHg 93%
08:00 +19°C° 0.1 mm 1 mps 763 mmHg 91%
09:00 +20°C° 0.1 mm 1 mps 764 mmHg 89%
10:00 +21°C° 0.1 mm 1 mps 763 mmHg 78%
11:00 +23°C° 0.1 mm 2 mps 763 mmHg 68%
12:00 +25°C° 0.1 mm 2 mps 763 mmHg 58%
13:00 +24°C° 0 mm 2 mps 762 mmHg 60%
14:00 +24°C° 0 mm 3 mps 762 mmHg 63%
15:00 +22°C° 0 mm 3 mps 762 mmHg 65%
16:00 +20°C° 0 mm 2 mps 762 mmHg 74%
17:00 +18°C° 0 mm 2 mps 762 mmHg 83%
18:00 +16°C° 0 mm 1 mps 762 mmHg 93%
19:00 +18°C° 0 mm 1 mps 762 mmHg 90%
20:00 +18°C° 0 mm 1 mps 763 mmHg 87%
21:00 +19°C° 0 mm 1 mps 763 mmHg 84%
22:00 +18°C° 0 mm 1 mps 763 mmHg 86%
23:00 +18°C° 0 mm 1 mps 763 mmHg 88%

19 Mayo, Miércoles

Tiempo Temperatura Precipitaciones Viento Presión Humedad
00:00 +18°C° 0 mm 1 mps 763 mmHg 90%
01:00 +18°C° 0 mm 1 mps 763 mmHg 90%
02:00 +18°C° 0 mm 1 mps 762 mmHg 90%
03:00 +18°C° 0 mm 1 mps 762 mmHg 90%
04:00 +16°C° 0 mm 1 mps 762 mmHg 92%
05:00 +15°C° 0 mm 1 mps 762 mmHg 94%
06:00 +15°C° 0 mm 1 mps 762 mmHg 96%
07:00 +16°C° 0 mm 1 mps 762 mmHg 90%
08:00 +18°C° 0 mm 1 mps 763 mmHg 84%
09:00 +19°C° 0 mm 1 mps 763 mmHg 78%
10:00 +21°C° 0 mm 1 mps 763 mmHg 69%
11:00 +23°C° 0 mm 1 mps 762 mmHg 60%
12:00 +23°C° 0 mm 0 mps 762 mmHg 52%
13:00 +25°C° 0 mm 1 mps 761 mmHg 52%
14:00 +25°C° 0 mm 2 mps 761 mmHg 52%
15:00 +25°C° 0 mm 2 mps 760 mmHg 52%
16:00 +21°C° 0 mm 2 mps 761 mmHg 66%
17:00 +19°C° 0 mm 2 mps 761 mmHg 80%
18:00 +16°C° 0 mm 2 mps 761 mmHg 94%
19:00 +15°C° 0 mm 2 mps 762 mmHg 95%
20:00 +15°C° 0 mm 2 mps 762 mmHg 96%
21:00 +15°C° 0 mm 2 mps 763 mmHg 97%
22:00 +15°C° 0 mm 2 mps 762 mmHg 96%
23:00 +15°C° 0 mm 1 mps 762 mmHg 95%

20 Mayo, Jueves

Tiempo Temperatura Precipitaciones Viento Presión Humedad
00:00 +14°C° 0 mm 1 mps 762 mmHg 95%
01:00 +15°C° 0 mm 1 mps 762 mmHg 94%
02:00 +15°C° 0 mm 1 mps 762 mmHg 93%
03:00 +14°C° 0 mm 0 mps 762 mmHg 92%
04:00 +14°C° 0 mm 0 mps 762 mmHg 91%
05:00 +15°C° 0 mm 0 mps 762 mmHg 89%
06:00 +15°C° 0 mm 0 mps 762 mmHg 88%
07:00 +16°C° 0 mm 0 mps 762 mmHg 84%
08:00 +17°C° 0 mm 0 mps 762 mmHg 80%
09:00 +17°C° 0 mm 0 mps 763 mmHg 75%
10:00 +19°C° 0 mm 0 mps 763 mmHg 69%
11:00 +22°C° 0 mm 1 mps 762 mmHg 62%
12:00 +24°C° 0 mm 1 mps 762 mmHg 56%
13:00 +24°C° 0 mm 1 mps 761 mmHg 58%
14:00 +24°C° 0 mm 2 mps 761 mmHg 60%
15:00 +22°C° 0 mm 3 mps 760 mmHg 61%
16:00 +20°C° 0 mm 2 mps 761 mmHg 72%
17:00 +18°C° 0 mm 2 mps 761 mmHg 82%
18:00 +16°C° 0 mm 1 mps 761 mmHg 93%
19:00 +16°C° 0 mm 1 mps 762 mmHg 93%
20:00 +16°C° 0 mm 1 mps 762 mmHg 94%
21:00 +16°C° 0 mm 1 mps 763 mmHg 94%
22:00 +16°C° 0 mm 1 mps 763 mmHg 93%
23:00 +16°C° 0 mm 1 mps 763 mmHg 91%
Mostrar más

Necesitamos Su Consentimiento

Meteoprog y nuestros Proveedores de Servicios pueden almacenar y acceder a sus datos personales como cookies, identificadores de dispositivo u otras tecnologías similares de su dispositivo y procesar dichos datos para personalizar contenido y anuncios, además de ofrecer funciones de redes sociales y analizar el tráfico.

  • Almacenar y/o acceder a información en su dispositivo

    Se puede almacenar o acceder a cookies, identificadores de dispositivo u otra información de su dispositivo para los fines anteriormente indicados.

  • Anuncios y contenido personalizados, medición de anuncios y contenido, percepciones del público, y desarrollo de productos

    Los anuncios y el contenido pueden personalizarse en base a su perfil. Se pueden añadir más datos para personalizar mejor los anuncios y contenidos. Se puede medir el rendimiento de los anuncios y contenidos. Se puede obtener la percepción sobre el público que ha visto los anuncios y contenidos. Dichos datos pueden usarse para desarrollar o mejorar la experiencia del usuario, sistemas y software.

Al hacer clic en ‘Estoy De Acuerdo’ usted permitirá el uso de las cookies, identificadores de dispositivo, balizas web u otras tecnologías similares indicadas. Su configuración puede cambiarse desde el navegador de su dispositivo.

Para ciertos fines, los intereses legítimos pueden ser considerados por encima del consentimiento. Puede leer más sobre ello en nuestra Política de Privacidad y Cookies.